Showing default

QIANFAN-48, 62249

Orbit data source: Space-Track

QIANFAN-48, 62249 is a Chinese payload satellite in LEO that was launched on Thu, 05 Dec 2024 UTC via a CHANG ZHENG 6A launch vehicle from the Taiyaun Space Center, China (TSC). Payload-class satellites include a variety of spacecraft equipped with specific instruments for various scientific and technological missions. These include communications satellites like Starlink; space stations such as the ISS; scientific satellites like the Hubble; Earth observation satellites from companies like Planet Labs, Umbra, and HawkEye 360; GPS; miniature CubeSats for education and research; and military/defense satellites.

Loading next visibility...
Identifier
62249, 2024-232N
Orbit
LEO
Country
Flag of CNCN / PRC
Related business
Manufacturer
SECM
Mission
Operational Commercial Communications
Bus & Motor
QIANFAN, Unknown motor
Mass
267 kg wet, ~267 kg dry
Launch date (UTC)
2024-12-05 (9 months ago)
Launch vehicle
CHANG ZHENG 6A
Launch site
Taiyaun Space Center, China (TSC)
Object type
Payload
Rocket body
Debris
Shape & HBR
Box + 1 Pan, 5.0 m
Radar Cross Section
13.200 m², Large (>1 m²)

Expand to show TLE details & history
Last TLE update: 9 hours ago

TLE from 9 hours ago
0 QIANFAN-48
1 62249U 24232N   25261.97465647  .00000080  00000-0  10482-3 0  9996
2 62249  88.9979  49.7651 0018962  86.7355 273.5965 13.50967615 87800
Epoch: 2025-09-18T23:23Z
TLE epoch observation values (Epoch: 2025-09-18T23:23:30.319Z)
Latitude
-0.00001°
Longitude
60.76022°
Altitude
1,070.795 km
Speed
7.317 km/s
True Right ascension
03h 19m 03s
True Declination
0° 00' 00"
Sunlit
Object was in full shadow at epoch
Visualization orbit readout
Latitude
Unknown
Longitude
Unknown
Altitude
Unknown
Speed
Unknown
Apparent Right ascension
Unknown
Apparent Declination
Unknown
Sunlit
N/A
Visualization observer readout
Local Sidereal Time
01:35:51
Azimuth
Unknown
Elevation
Unknown
Doppler factor
Unknown
Orbital elements
Apogee altitude
1,079.867 km
Perigee altitude
1,051.637 km
Semi-major axis
7,443.889 km
Eccentricity
0.0019
Inclination
88.9979°
RAAN
49.7651°
Arg. of periapsis
86.7355°
True anomaly
273.37961°
Mean anomaly
273.5965°
Eccentric anomaly
273.48806°
Mean motion
3.37943 °/min
Orbital period
106.53 mins
BSTAR
0.00010482
Loading maneuver chart data...
Computing Atmospheric mass density...
Loading historical data...
Loading historical data...
Loading historical data...
Loading historical data...
Loading historical data...
Loading historical data...
Loading historical data...

Documentation

Showing up to 5 results
|